Location: Chmeln�
(49.6483°N, 14.9871°E)
Time: 08:31:23
(UTC+00:00)

Cosmos 2082 Rocket - Pass Details

Date: 18 September 2020
Orbit: 834 x 853 km, 71.0° (Epoch: 24 October)

Event Time Altitude Azimuth Distance (km) Brightness Sun altitude
Rises 18:55:21 0° 334° (NNW) 3,394 6.2 -17.9°
Reaches altitude 10° 18:58:32 10° 352° (N) 2,456 5.1 -18.4°
Maximum altitude 19:02:31 19° 37° (NE) 1,880 3.9 -19.0°
Enters shadow 19:04:25 17° 62° (ENE) 2,025 3.8 -19.2°
